GALAXY 36 (G-36)

Last updated on Fri Dec 19 2025 00:02:53 GMT+0000 (Coordinated Universal Time)

1 54742U 22170B 25351.60894262 -.00000160 00000+0 00000+0 0 9993 2 54742 0.0136 286.7849 0000270 61.0617 228.8591 1.00272010 10951
UTC large
Height (km)
Speed (km/s)
/
Latitude / Longitude
Inclination (degrees)
Orbital Period (minutes)
Azimuth
Elevation
Range (km)
Doppler Factor

Next 0 passes for location: London (51.5072 / 0.1276)

Sorry there are no passes over London.